Overview Statistics Trail Chart Weather Telemetry Raw packets
 

This is the latest recevied weather packets stored in our database for station/object OM5AST-13. If no packets are shown the sender has not sent any weather packets the latest 10 day(s).

<< 1 2 3 4 5 6 7 >>
Time Temp. Humidity Pressure Rain* Wind** Luminosity Snow
1788545035 28.89° C 39% - 0 mm - 0 W/m² -
1788543835 32.78° C 33% - 0 mm - 0 W/m² -
1788542635 34.44° C 30% - 0 mm - 0 W/m² -
1788541435 35.56° C 29% - 0 mm - 0 W/m² -
1788540235 36.67° C 27% - 0 mm - 0 W/m² -
1788539035 37.22° C 26% - 0 mm - 0 W/m² -
1788537835 37.78° C 26% - 0 mm - 0 W/m² -
1788536635 37.78° C 26% - 0 mm - 0 W/m² -
1788535435 36.67° C 26% - 0 mm - 0 W/m² -
1788534235 37.22° C 26% - 0 mm - 0 W/m² -
1788533035 35° C 29% - 0 mm - 0 W/m² -
1788531835 33.89° C 30% - 0 mm - 0 W/m² -
1788530645 31.67° C 33% - 0 mm - 0 W/m² -
1788529435 32.22° C 33% - 0 mm - 0 W/m² -
1788528235 30.56° C 35% - 0 mm - 0 W/m² -
1788527035 30.56° C 35% - 0 mm - 0 W/m² -
1788525835 30° C 37% - 0 mm - 0 W/m² -
1788524635 30° C 38% - 0 mm - 0 W/m² -
1788523435 29.44° C 40% - 0 mm - 0 W/m² -
1788522235 28.33° C 42% - 0 mm - 0 W/m² -
1788521035 27.78° C 43% - 0 mm - 0 W/m² -
1788519835 27.78° C 45% - 0 mm - 0 W/m² -
1788518635 27.22° C 46% - 0 mm - 0 W/m² -
1788517435 26.67° C 47% - 0 mm - 0 W/m² -
1788516235 26.11° C 48% - 0 mm - 0 W/m² -

* Rain latest hour (hover to see other rain measurements)
** Current wind speed in m/s (hover to see current wind gust speed)